Location: Newark
(12.4436°N, 0.6167°W)
Time: 06:51:58
(UTC+00:00)

Vanguard 1 - Pass Details

Date: 13 December 2019
Orbit: 651 x 3832 km, 34.2° (Epoch: 20 January)

Event Time Altitude Azimuth Distance (km) Brightness Sun altitude
Rises 03:49:24 0° 263° (W) 7,191 - -33.9°
Reaches altitude 10° 03:54:13 10° 269° (W) 6,463 - -32.7°
Exits shadow 04:07:37 39° 299° (WNW) 4,901 13.0 -29.7°
Maximum altitude 04:15:45 48° 339° (NNW) 4,514 13.0 -27.8°
Drops below altitude 10° 04:35:43 10° 50° (NE) 5,993 14.4 -23.2°
Sets 04:40:02 0° 57° (ENE) 6,655 14.8 -22.2°
